When you browse on this site, cookies collect data to enhance your experience and personalize the content and advertising you see.
Visit our Privacy Policy to learn more. By continuing to use the site, you agree to this use of cookies and data.
  • In Denmark
  • List of Countries
  • For 7 days
  • Water Temperature
  • Weather Map
  • Weather Widgets
  • user-avatar
    Login

    Hourly Weather Granada

    Today, 7 December, Saturday

    Time Temperature Precipitation Wind Pressure Humidity
    00:00 +8°C° 0 mm 1 mps 704 mmHg 80%
    01:00 +8°C° 0 mm 1 mps 703 mmHg 80%
    02:00 +8°C° 0 mm 1 mps 703 mmHg 81%
    03:00 +8°C° 0 mm 1 mps 703 mmHg 81%
    04:00 +8°C° 0 mm 1 mps 703 mmHg 81%
    05:00 +8°C° 0 mm 1 mps 703 mmHg 81%
    06:00 +7°C° 0 mm 1 mps 703 mmHg 81%
    07:00 +9°C° 0 mm 1 mps 704 mmHg 76%
    08:00 +10°C° 0 mm 1 mps 704 mmHg 72%
    09:00 +10°C° 0 mm 0 mps 705 mmHg 67%
    10:00 +12°C° 0 mm 1 mps 705 mmHg 63%
    11:00 +13°C° 0 mm 1 mps 705 mmHg 58%
    12:00 +14°C° 0 mm 1 mps 705 mmHg 54%
    13:00 +14°C° 0 mm 1 mps 705 mmHg 52%
    14:00 +15°C° 0 mm 1 mps 705 mmHg 51%
    15:00 +15°C° 0 mm 1 mps 705 mmHg 50%
    16:00 +13°C° 0 mm 1 mps 705 mmHg 57%
    17:00 +12°C° 0 mm 1 mps 705 mmHg 65%
    18:00 +10°C° 0 mm 1 mps 705 mmHg 72%
    19:00 +9°C° 0 mm 0 mps 705 mmHg 73%
    20:00 +9°C° 0 mm 0 mps 705 mmHg 75%
    21:00 +8°C° 0 mm 0 mps 706 mmHg 76%
    22:00 +8°C° 0 mm 0 mps 706 mmHg 77%
    23:00 +8°C° 0 mm 0 mps 706 mmHg 78%

    Tomorrow, 8 December, Sunday

    Time Temperature Precipitation Wind Pressure Humidity
    00:00 +7°C° 0 mm 0 mps 706 mmHg 79%
    01:00 +7°C° 0 mm 0 mps 706 mmHg 79%
    02:00 +7°C° 0 mm 0 mps 706 mmHg 79%
    03:00 +7°C° 0 mm 0 mps 706 mmHg 80%
    04:00 +6°C° 0 mm 0 mps 706 mmHg 79%
    05:00 +6°C° 0 mm 0 mps 706 mmHg 79%
    06:00 +6°C° 0 mm 0 mps 706 mmHg 78%
    07:00 +7°C° 0 mm 0 mps 706 mmHg 73%
    08:00 +9°C° 0 mm 0 mps 707 mmHg 68%
    09:00 +10°C° 0 mm 0 mps 707 mmHg 62%
    10:00 +12°C° 0 mm 1 mps 707 mmHg 58%
    11:00 +13°C° 0 mm 1 mps 707 mmHg 54%
    12:00 +14°C° 0 mm 1 mps 707 mmHg 50%
    13:00 +15°C° 0 mm 2 mps 707 mmHg 49%
    14:00 +15°C° 0 mm 2 mps 707 mmHg 49%
    15:00 +15°C° 0 mm 2 mps 707 mmHg 48%
    16:00 +14°C° 0 mm 2 mps 707 mmHg 54%
    17:00 +12°C° 0 mm 2 mps 706 mmHg 61%
    18:00 +11°C° 0 mm 1 mps 706 mmHg 67%
    19:00 +10°C° 0 mm 1 mps 707 mmHg 68%
    20:00 +10°C° 0 mm 1 mps 707 mmHg 70%
    21:00 +10°C° 0 mm 1 mps 707 mmHg 71%
    22:00 +10°C° 0 mm 1 mps 707 mmHg 72%
    23:00 +10°C° 0 mm 1 mps 707 mmHg 73%

    Day after tomorrow, 9 December, Monday

    Time Temperature Precipitation Wind Pressure Humidity
    00:00 +10°C° 0 mm 1 mps 707 mmHg 73%
    01:00 +10°C° 0 mm 1 mps 707 mmHg 75%
    02:00 +8°C° 0 mm 2 mps 706 mmHg 77%
    03:00 +8°C° 0 mm 2 mps 706 mmHg 79%
    04:00 +8°C° 0 mm 2 mps 706 mmHg 81%
    05:00 +8°C° 0 mm 2 mps 707 mmHg 83%
    06:00 +8°C° 0 mm 2 mps 707 mmHg 84%
    07:00 +9°C° 0 mm 2 mps 707 mmHg 82%
    08:00 +11°C° 0 mm 1 mps 708 mmHg 79%
    09:00 +12°C° 0 mm 1 mps 709 mmHg 77%
    10:00 +14°C° 0 mm 1 mps 709 mmHg 71%
    11:00 +15°C° 0 mm 1 mps 709 mmHg 66%
    12:00 +16°C° 0 mm 1 mps 709 mmHg 60%
    13:00 +16°C° 0 mm 1 mps 709 mmHg 58%
    14:00 +18°C° 0 mm 1 mps 709 mmHg 56%
    15:00 +18°C° 0 mm 1 mps 709 mmHg 54%
    16:00 +15°C° 0 mm 1 mps 709 mmHg 60%
    17:00 +13°C° 0 mm 1 mps 708 mmHg 66%
    18:00 +12°C° 0 mm 1 mps 708 mmHg 72%
    19:00 +11°C° 0 mm 1 mps 708 mmHg 70%
    20:00 +11°C° 0 mm 1 mps 709 mmHg 68%
    21:00 +11°C° 0 mm 1 mps 709 mmHg 66%
    22:00 +10°C° 0 mm 1 mps 709 mmHg 65%
    23:00 +10°C° 0 mm 1 mps 708 mmHg 63%

    10 December, Tuesday

    Time Temperature Precipitation Wind Pressure Humidity
    00:00 +10°C° 0 mm 1 mps 708 mmHg 62%
    01:00 +10°C° 0 mm 1 mps 708 mmHg 61%
    02:00 +8°C° 0 mm 0 mps 708 mmHg 59%
    03:00 +8°C° 0 mm 0 mps 708 mmHg 58%
    04:00 +9°C° 0 mm 1 mps 707 mmHg 57%
    05:00 +9°C° 0 mm 1 mps 707 mmHg 56%
    06:00 +9°C° 0 mm 1 mps 707 mmHg 55%
    07:00 +10°C° 0 mm 1 mps 708 mmHg 50%
    08:00 +12°C° 0 mm 1 mps 708 mmHg 46%
    09:00 +12°C° 0 mm 0 mps 709 mmHg 42%
    10:00 +15°C° 0 mm 1 mps 709 mmHg 36%
    11:00 +16°C° 0 mm 1 mps 709 mmHg 31%
    12:00 +19°C° 0 mm 1 mps 708 mmHg 26%
    13:00 +19°C° 0 mm 1 mps 708 mmHg 26%
    14:00 +19°C° 0 mm 1 mps 708 mmHg 26%
    15:00 +19°C° 0 mm 1 mps 707 mmHg 27%
    16:00 +16°C° 0 mm 1 mps 707 mmHg 30%
    17:00 +14°C° 0 mm 1 mps 707 mmHg 34%
    18:00 +12°C° 0 mm 1 mps 706 mmHg 38%
    19:00 +12°C° 0 mm 1 mps 706 mmHg 37%
    20:00 +12°C° 0 mm 1 mps 706 mmHg 36%
    21:00 +11°C° 0 mm 1 mps 706 mmHg 35%
    22:00 +11°C° 0 mm 1 mps 706 mmHg 34%
    23:00 +11°C° 0 mm 1 mps 706 mmHg 33%

    11 December, Wednesday

    Time Temperature Precipitation Wind Pressure Humidity
    00:00 +10°C° 0 mm 1 mps 706 mmHg 32%
    01:00 +10°C° 0 mm 1 mps 706 mmHg 31%
    02:00 +10°C° 0 mm 1 mps 705 mmHg 30%
    03:00 +10°C° 0 mm 1 mps 705 mmHg 28%
    04:00 +10°C° 0 mm 1 mps 705 mmHg 28%
    05:00 +9°C° 0 mm 1 mps 705 mmHg 28%
    06:00 +9°C° 0 mm 1 mps 705 mmHg 28%
    07:00 +10°C° 0 mm 1 mps 705 mmHg 30%
    08:00 +11°C° 0 mm 1 mps 706 mmHg 32%
    09:00 +13°C° 0 mm 1 mps 706 mmHg 34%
    10:00 +14°C° 0 mm 2 mps 706 mmHg 31%
    11:00 +15°C° 0 mm 2 mps 706 mmHg 29%
    12:00 +16°C° 0 mm 3 mps 705 mmHg 27%
    13:00 +16°C° 0 mm 3 mps 705 mmHg 31%
    14:00 +16°C° 0 mm 3 mps 705 mmHg 34%
    15:00 +16°C° 0 mm 3 mps 705 mmHg 38%
    16:00 +13°C° 0 mm 3 mps 705 mmHg 47%
    17:00 +12°C° 0 mm 3 mps 705 mmHg 56%
    18:00 +10°C° 0 mm 3 mps 705 mmHg 65%
    19:00 +10°C° 0 mm 2 mps 705 mmHg 68%
    20:00 +9°C° 0 mm 2 mps 705 mmHg 72%
    21:00 +9°C° 0 mm 2 mps 706 mmHg 75%
    22:00 +8°C° 0 mm 2 mps 706 mmHg 77%
    23:00 +9°C° 0 mm 1 mps 706 mmHg 79%

    12 December, Thursday

    Time Temperature Precipitation Wind Pressure Humidity
    00:00 +8°C° 0 mm 1 mps 706 mmHg 81%
    01:00 +8°C° 0 mm 1 mps 706 mmHg 82%
    02:00 +7°C° 0 mm 1 mps 706 mmHg 83%
    03:00 +6°C° 0 mm 0 mps 706 mmHg 83%
    04:00 +6°C° 0 mm 0 mps 706 mmHg 83%
    05:00 +6°C° 0 mm 0 mps 706 mmHg 83%
    06:00 +5°C° 0 mm 0 mps 706 mmHg 83%
    07:00 +8°C° 0 mm 1 mps 706 mmHg 78%
    08:00 +9°C° 0 mm 1 mps 707 mmHg 74%
    09:00 +10°C° 0 mm 1 mps 707 mmHg 69%
    10:00 +11°C° 0 mm 1 mps 707 mmHg 64%
    11:00 +12°C° 0 mm 2 mps 707 mmHg 58%
    12:00 +13°C° 0 mm 3 mps 707 mmHg 53%
    13:00 +12°C° 0 mm 3 mps 707 mmHg 52%
    14:00 +12°C° 0 mm 3 mps 706 mmHg 52%
    15:00 +12°C° 0 mm 3 mps 706 mmHg 52%
    16:00 +11°C° 0 mm 3 mps 706 mmHg 58%
    17:00 +9°C° 0 mm 3 mps 706 mmHg 64%
    18:00 +8°C° 0 mm 3 mps 706 mmHg 70%
    19:00 +7°C° 0 mm 3 mps 706 mmHg 70%
    20:00 +7°C° 0 mm 3 mps 706 mmHg 70%
    21:00 +5°C° 0 mm 3 mps 707 mmHg 70%
    22:00 +5°C° 0 mm 3 mps 707 mmHg 70%
    23:00 +5°C° 0 mm 3 mps 707 mmHg 71%
    Show more